Beaufort, SC

6:54 AM EDT on July 25, 2016 (GMT -0400)
Beaufort

Weather History for KARW - February, 2012

Change the Weather History Date:

Wednesday, February 8, 2012

  Actual Average (KNBC) Record (KNBC)
Temperature  
Mean Temperature 55 °F -  
Max Temperature 68 °F 58 °F 71 °F (2015)
Min Temperature 42 °F 38 °F 33 °F (2016)
Degree Days  
Heating Degree Days 10    
Growing Degree Days 5 (Base 50)    
Moisture  
Dew Point 39 °F    
Average Humidity 65    
Maximum Humidity 100    
Minimum Humidity 26    
Precipitation  
Precipitation 0.00 in - - ()
Sea Level Pressure  
Sea Level Pressure 30.13 in    
Wind  
Wind Speed 2 mph (NW)    
Max Wind Speed 14 mph    
Max Gust Speed 17 mph    
Visibility 8 miles    
Events Fog    
Averages and records for this station are not official NWS values.
T = Trace of Precipitation, MM = Missing Value Source: NWS Daily Summary

Daily Weather History Graph

Daily Weather History Graph

Search for Another Location

Airport or City:

Trip Planner

Search our weather history database for the weather conditions in past years. The results will help you decide how hot, cold, wet, or windy it might be!

Date:

Astronomy

Feb. 08, 2012 Rise Set
Actual Time 7:11 AM EST 6:01 PM EST
Civil Twilight 6:46 AM EST 6:27 PM EST
Nautical Twilight 6:17 AM EST 6:56 PM EST
Astronomical Twilight 5:48 AM EST 7:25 PM EST
Moon 7:11 PM EST (2/8) 7:20 AM EST (2/8)
Length of Visible Light 11h 40m
Length of Day
10h 49m
Full, 99% of the Moon is Illuminated
Feb 8
Full
Feb 14
Last Quarter
Feb 21
New
Feb 29
First Quarter
Mar 8
Full

Hourly Weather History & Observations

Time (EST) Temp. Windchill Dew Point Humidity Pressure Visibility Wind Dir Wind Speed Gust Speed Precip Events Conditions
12:15 AM 46.4 °F - 44.6 °F 93% 30.16 in 5.0 mi Calm Calm - N/A   Clear
12:35 AM 44.6 °F - 44.6 °F 100% 30.15 in 4.0 mi Calm Calm - N/A   Clear
12:55 AM 46.4 °F - 44.6 °F 93% 30.15 in 1.5 mi Calm Calm - N/A   Mist
1:15 AM 46.4 °F - 44.6 °F 93% 30.15 in 2.0 mi Calm Calm - N/A   Clear
1:35 AM 44.6 °F - 42.8 °F 93% 30.16 in 7.0 mi Calm Calm - N/A   Clear
1:55 AM 44.6 °F - 42.8 °F 93% 30.16 in 4.0 mi Calm Calm - N/A   Clear
2:15 AM 46.4 °F - 44.6 °F 93% 30.15 in 7.0 mi Calm Calm - N/A   Clear
2:35 AM 44.6 °F - 42.8 °F 93% 30.14 in 0.8 mi Calm Calm - N/A   Mist
2:55 AM 46.4 °F - 44.6 °F 93% 30.14 in 0.5 mi Calm Calm - N/A Fog Fog
3:15 AM 44.6 °F - 42.8 °F 93% 30.14 in 7.0 mi Calm Calm - N/A   Clear
3:35 AM 44.6 °F - 44.6 °F 100% 30.14 in 3.0 mi Calm Calm - N/A   Clear
3:55 AM 44.6 °F - 42.8 °F 93% 30.13 in 2.5 mi Calm Calm - N/A   Clear
4:15 AM 42.8 °F - 42.8 °F 100% 30.13 in 1.8 mi Calm Calm - N/A   Mist
4:35 AM 44.6 °F - 42.8 °F 93% 30.13 in 5.0 mi Calm Calm - N/A   Clear
4:55 AM 44.6 °F - 42.8 °F 93% 30.12 in 5.0 mi Calm Calm - N/A   Clear
5:15 AM 42.8 °F - 41.0 °F 93% 30.12 in 2.5 mi Calm Calm - N/A   Clear
5:35 AM 42.8 °F - 42.8 °F 100% 30.12 in 5.0 mi Calm Calm - N/A   Clear
5:55 AM 42.8 °F - 42.8 °F 100% 30.13 in 1.2 mi Calm Calm - N/A   Scattered Clouds
6:15 AM 42.8 °F - 42.8 °F 100% 30.13 in 3.0 mi Calm Calm - N/A   Scattered Clouds
6:35 AM 42.8 °F 41.1 °F 42.8 °F 100% 30.13 in 7.0 mi NNW 3.5 mph - N/A   Clear
6:55 AM 42.8 °F 41.1 °F 42.8 °F 100% 30.13 in 10.0 mi North 3.5 mph - N/A   Clear
7:15 AM 42.8 °F - 42.8 °F 100% 30.14 in 10.0 mi Calm Calm - N/A   Clear
7:35 AM 42.8 °F - 41.0 °F 93% 30.16 in 10.0 mi Calm Calm - N/A   Clear
7:55 AM 44.6 °F 41.4 °F 42.8 °F 93% 30.16 in 10.0 mi NW 5.8 mph - N/A   Clear
8:15 AM 46.4 °F 45.2 °F 44.6 °F 93% 30.16 in 10.0 mi NNW 3.5 mph - N/A   Clear
8:35 AM 46.4 °F - 42.8 °F 87% 30.16 in 7.0 mi Calm Calm - N/A   Clear
8:55 AM 48.2 °F - 42.8 °F 82% 30.16 in 10.0 mi NNW 3.5 mph - N/A   Clear
9:15 AM 50.0 °F - 42.8 °F 76% 30.16 in 10.0 mi Calm Calm - N/A   Clear
9:35 AM 51.8 °F - 42.8 °F 71% 30.17 in 10.0 mi Calm Calm - N/A   Clear
9:55 AM 53.6 °F - 42.8 °F 67% 30.18 in 10.0 mi Calm Calm - N/A   Clear
10:15 AM 53.6 °F - 42.8 °F 67% 30.18 in 10.0 mi NW 3.5 mph - N/A   Clear
10:35 AM 55.4 °F - 41.0 °F 58% 30.18 in 10.0 mi Calm Calm - N/A   Clear
10:55 AM 57.2 °F - 41.0 °F 55% 30.18 in 10.0 mi WNW 5.8 mph - N/A   Clear
11:15 AM 59.0 °F - 33.8 °F 39% 30.18 in 10.0 mi WNW 5.8 mph - N/A   Clear
11:35 AM 59.0 °F - 32.0 °F 36% 30.16 in 10.0 mi WNW 4.6 mph - N/A   Clear
11:55 AM 59.0 °F - 32.0 °F 36% 30.16 in 10.0 mi NW 6.9 mph - N/A   Scattered Clouds
12:15 PM 60.8 °F - 33.8 °F 36% 30.15 in 10.0 mi NW 6.9 mph - N/A   Scattered Clouds
12:35 PM 60.8 °F - 35.6 °F 39% 30.13 in 10.0 mi NNW 6.9 mph - N/A   Clear
12:55 PM 62.6 °F - 35.6 °F 37% 30.12 in 10.0 mi NW 10.4 mph - N/A   Clear
1:15 PM 62.6 °F - 35.6 °F 37% 30.10 in 10.0 mi NNW 9.2 mph - N/A   Clear
1:35 PM 64.4 °F - 35.6 °F 34% 30.09 in 10.0 mi NNW 10.4 mph - N/A   Clear
1:55 PM 66.2 °F - 33.8 °F 30% 30.08 in 10.0 mi NW 12.7 mph - N/A   Clear
2:15 PM 66.2 °F - 33.8 °F 30% 30.08 in 10.0 mi NW 12.7 mph 16.1 mph N/A   Clear
2:35 PM 66.2 °F - 33.8 °F 30% 30.08 in 10.0 mi NW 13.8 mph - N/A   Clear
2:55 PM 66.2 °F - 33.8 °F 30% 30.07 in 10.0 mi WNW 8.1 mph 17.3 mph N/A   Mostly Cloudy
3:15 PM 66.2 °F - 33.8 °F 30% 30.07 in 10.0 mi WNW 10.4 mph 17.3 mph N/A   Overcast
3:35 PM 66.2 °F - 33.8 °F 30% 30.07 in 10.0 mi WNW 8.1 mph - N/A   Scattered Clouds
3:55 PM 66.2 °F - 33.8 °F 30% 30.06 in 10.0 mi NW 9.2 mph - N/A   Clear
4:15 PM 66.2 °F - 33.8 °F 30% 30.06 in 10.0 mi NW 4.6 mph - N/A   Clear
4:35 PM 68.0 °F - 32.0 °F 26% 30.05 in 10.0 mi West 4.6 mph - N/A   Clear
4:55 PM 66.2 °F - 30.2 °F 26% 30.05 in 10.0 mi NW 9.2 mph - N/A   Clear
5:15 PM 64.4 °F - 32.0 °F 30% 30.06 in 10.0 mi WNW 8.1 mph - N/A   Clear
5:35 PM 64.4 °F - 32.0 °F 30% 30.06 in 10.0 mi WNW 5.8 mph - N/A   Clear
5:55 PM 62.6 °F - 32.0 °F 32% 30.07 in 10.0 mi West 3.5 mph - N/A   Clear
6:15 PM 60.8 °F - 32.0 °F 34% 30.08 in 10.0 mi WNW 5.8 mph - N/A   Clear
6:35 PM 60.8 °F - 32.0 °F 34% 30.09 in 10.0 mi WNW 4.6 mph - N/A   Clear
6:55 PM 59.0 °F - 33.8 °F 39% 30.09 in 10.0 mi West 5.8 mph - N/A   Clear
7:15 PM 57.2 °F - 33.8 °F 41% 30.10 in 10.0 mi Calm Calm - N/A   Clear
7:35 PM 53.6 °F - 33.8 °F 47% 30.11 in 10.0 mi WNW 3.5 mph - N/A   Clear
7:55 PM 51.8 °F - 33.8 °F 50% 30.11 in 10.0 mi Calm Calm - N/A   Clear
8:15 PM 53.6 °F - 35.6 °F 51% 30.12 in 10.0 mi WNW 4.6 mph - N/A   Clear
8:35 PM 50.0 °F - 35.6 °F 58% 30.12 in 10.0 mi WNW 3.5 mph - N/A   Clear
8:55 PM 50.0 °F - 37.4 °F 62% 30.13 in 10.0 mi Calm Calm - N/A   Clear
9:15 PM 50.0 °F - 37.4 °F 62% 30.13 in 10.0 mi NW 5.8 mph - N/A   Clear
9:35 PM 51.8 °F - 41.0 °F 67% 30.14 in 10.0 mi NNW 6.9 mph - N/A   Clear
9:55 PM 51.8 °F - 41.0 °F 67% 30.14 in 10.0 mi North 3.5 mph - N/A   Clear
10:15 PM 48.2 °F - 39.2 °F 71% 30.14 in 10.0 mi Calm Calm - N/A   Clear
10:35 PM 50.0 °F - 37.4 °F 62% 30.14 in 10.0 mi Calm Calm - N/A   Clear
10:55 PM 46.4 °F - 37.4 °F 71% 30.14 in 10.0 mi Calm Calm - N/A   Clear
11:15 PM 48.2 °F - 37.4 °F 66% 30.14 in 10.0 mi Calm Calm - N/A   Clear
11:35 PM 46.4 °F 45.2 °F 41.0 °F 81% 30.15 in 10.0 mi North 3.5 mph - N/A   Clear
11:55 PM 46.4 °F - 39.2 °F 76% 30.16 in 10.0 mi Calm Calm - N/A   Clear